When you browse on this site, cookies collect data to enhance your experience and personalize the content and advertising you see.
Visit our Privacy Policy to learn more. By continuing to use the site, you agree to this use of cookies and data.
  • In Österreich
  • Länderverzeichnis
  • Für 7 Tage
  • Wassertemperatur
  • Wetterkarte
  • News
  • Widgets
  • user-avatar
    Anmelden

    Stündliche Wetter Polostevichi

    Heute, 23 Februar, Sonntag

    Zeit Temperatur Niederschläge Wind Luftdruck Luftfeuchtigkeit
    00:00 +3°C° 0 mm 7 m/S 746 mmHg 66%
    01:00 +3°C° 0 mm 7 m/S 745 mmHg 67%
    02:00 +4°C° 0 mm 7 m/S 744 mmHg 66%
    03:00 +4°C° 0.2 mm 7 m/S 743 mmHg 73%
    04:00 +4°C° 0.2 mm 7 m/S 743 mmHg 79%
    05:00 +3°C° 0.2 mm 7 m/S 743 mmHg 86%
    06:00 +3°C° 0 mm 7 m/S 743 mmHg 81%
    07:00 +3°C° 0 mm 7 m/S 743 mmHg 76%
    08:00 +2°C° 0 mm 8 m/S 743 mmHg 71%
    09:00 +4°C° 0.2 mm 8 m/S 743 mmHg 66%
    10:00 +4°C° 0.2 mm 8 m/S 742 mmHg 62%
    11:00 +3°C° 0.2 mm 9 m/S 742 mmHg 58%
    12:00 +5°C° 0.1 mm 9 m/S 742 mmHg 56%
    13:00 +5°C° 0.1 mm 8 m/S 742 mmHg 53%
    14:00 +5°C° 0.1 mm 8 m/S 742 mmHg 51%
    15:00 +5°C° 0 mm 7 m/S 741 mmHg 54%
    16:00 +4°C° 0 mm 6 m/S 741 mmHg 58%
    17:00 +5°C° 0 mm 4 m/S 740 mmHg 61%
    18:00 +4°C° 0.1 mm 4 m/S 740 mmHg 65%
    19:00 +4°C° 0.1 mm 4 m/S 740 mmHg 70%
    20:00 +3°C° 0.1 mm 4 m/S 739 mmHg 75%
    21:00 +3°C° 0.1 mm 3 m/S 738 mmHg 78%
    22:00 +3°C° 0.1 mm 3 m/S 737 mmHg 82%
    23:00 +2°C° 0.1 mm 3 m/S 736 mmHg 85%

    Morgen, 24 Februar, Montag

    Zeit Temperatur Niederschläge Wind Luftdruck Luftfeuchtigkeit
    00:00 +3°C° 0.4 mm 2 m/S 735 mmHg 89%
    01:00 +4°C° 0.4 mm 1 m/S 733 mmHg 93%
    02:00 +4°C° 0.4 mm 1 m/S 732 mmHg 96%
    03:00 +3°C° 0.3 mm 2 m/S 732 mmHg 94%
    04:00 +2°C° 0.3 mm 3 m/S 732 mmHg 92%
    05:00 0°C° 0.3 mm 4 m/S 732 mmHg 90%
    06:00 0°C° 0 mm 5 m/S 734 mmHg 89%
    07:00 0°C° 0 mm 5 m/S 735 mmHg 88%
    08:00 -1°C° 0 mm 6 m/S 737 mmHg 86%
    09:00 +1°C° 0 mm 6 m/S 737 mmHg 82%
    10:00 0°C° 0 mm 7 m/S 738 mmHg 77%
    11:00 0°C° 0 mm 7 m/S 739 mmHg 73%
    12:00 0°C° 0 mm 7 m/S 739 mmHg 73%
    13:00 +2°C° 0 mm 7 m/S 740 mmHg 73%
    14:00 +2°C° 0 mm 7 m/S 741 mmHg 73%
    15:00 +2°C° 0 mm 6 m/S 741 mmHg 69%
    16:00 +2°C° 0 mm 6 m/S 742 mmHg 66%
    17:00 +2°C° 0 mm 5 m/S 743 mmHg 62%
    18:00 +1°C° 0 mm 5 m/S 743 mmHg 65%
    19:00 0°C° 0 mm 4 m/S 744 mmHg 68%
    20:00 +1°C° 0 mm 3 m/S 745 mmHg 71%
    21:00 0°C° 0 mm 3 m/S 745 mmHg 74%
    22:00 0°C° 0 mm 3 m/S 745 mmHg 77%
    23:00 -1°C° 0 mm 3 m/S 746 mmHg 80%

    übermorgen, 25 Februar, Dienstag

    Zeit Temperatur Niederschläge Wind Luftdruck Luftfeuchtigkeit
    00:00 -1°C° 0 mm 2 m/S 746 mmHg 81%
    01:00 -1°C° 0 mm 2 m/S 745 mmHg 83%
    02:00 -1°C° 0 mm 2 m/S 745 mmHg 84%
    03:00 -1°C° 0 mm 2 m/S 745 mmHg 85%
    04:00 -1°C° 0 mm 3 m/S 744 mmHg 86%
    05:00 -1°C° 0 mm 3 m/S 743 mmHg 86%
    06:00 -1°C° 0 mm 3 m/S 743 mmHg 87%
    07:00 0°C° 0 mm 3 m/S 743 mmHg 87%
    08:00 -1°C° 0 mm 4 m/S 742 mmHg 88%
    09:00 -1°C° 0.3 mm 4 m/S 741 mmHg 90%
    10:00 -1°C° 0.3 mm 5 m/S 740 mmHg 93%
    11:00 -1°C° 0.3 mm 5 m/S 739 mmHg 95%
    12:00 -1°C° 0.4 mm 5 m/S 739 mmHg 95%
    13:00 -1°C° 0.4 mm 5 m/S 738 mmHg 96%
    14:00 -1°C° 0.4 mm 4 m/S 737 mmHg 96%
    15:00 0°C° 0.4 mm 4 m/S 737 mmHg 95%
    16:00 +1°C° 0.4 mm 4 m/S 736 mmHg 95%
    17:00 +3°C° 0.4 mm 4 m/S 736 mmHg 94%
    18:00 +3°C° 0.2 mm 5 m/S 736 mmHg 93%
    19:00 +3°C° 0.2 mm 5 m/S 736 mmHg 93%
    20:00 +3°C° 0.2 mm 5 m/S 736 mmHg 92%
    21:00 +3°C° 0.3 mm 5 m/S 736 mmHg 92%
    22:00 +4°C° 0.3 mm 4 m/S 736 mmHg 93%
    23:00 +4°C° 0.3 mm 4 m/S 736 mmHg 93%

    26 Februar, Mittwoch

    Zeit Temperatur Niederschläge Wind Luftdruck Luftfeuchtigkeit
    00:00 +4°C° 0.5 mm 4 m/S 736 mmHg 92%
    01:00 +3°C° 0.5 mm 4 m/S 736 mmHg 91%
    02:00 +3°C° 0.5 mm 3 m/S 736 mmHg 90%
    03:00 +3°C° 0.1 mm 3 m/S 735 mmHg 88%
    04:00 +2°C° 0.1 mm 3 m/S 735 mmHg 85%
    05:00 +2°C° 0.1 mm 3 m/S 735 mmHg 83%
    06:00 +2°C° 0 mm 3 m/S 735 mmHg 84%
    07:00 +1°C° 0 mm 3 m/S 735 mmHg 84%
    08:00 +1°C° 0 mm 3 m/S 735 mmHg 85%
    09:00 +2°C° 0 mm 3 m/S 735 mmHg 78%
    10:00 +3°C° 0 mm 4 m/S 736 mmHg 71%
    11:00 +4°C° 0 mm 4 m/S 736 mmHg 64%
    12:00 +5°C° 0 mm 4 m/S 736 mmHg 61%
    13:00 +5°C° 0 mm 4 m/S 735 mmHg 57%
    14:00 +6°C° 0 mm 4 m/S 735 mmHg 54%
    15:00 +5°C° 0 mm 3 m/S 735 mmHg 57%
    16:00 +6°C° 0 mm 2 m/S 735 mmHg 61%
    17:00 +5°C° 0 mm 2 m/S 735 mmHg 64%
    18:00 +5°C° 0 mm 1 m/S 735 mmHg 67%
    19:00 +5°C° 0 mm 1 m/S 736 mmHg 69%
    20:00 +4°C° 0 mm 1 m/S 736 mmHg 71%
    21:00 +4°C° 0 mm 1 m/S 736 mmHg 73%
    22:00 +4°C° 0 mm 1 m/S 736 mmHg 74%
    23:00 +3°C° 0 mm 1 m/S 736 mmHg 76%

    27 Februar, Donnerstag

    Zeit Temperatur Niederschläge Wind Luftdruck Luftfeuchtigkeit
    00:00 +3°C° 0 mm 1 m/S 736 mmHg 77%
    01:00 +3°C° 0 mm 1 m/S 736 mmHg 79%
    02:00 +3°C° 0 mm 1 m/S 736 mmHg 80%
    03:00 +3°C° 0 mm 1 m/S 736 mmHg 81%
    04:00 +3°C° 0 mm 1 m/S 736 mmHg 81%
    05:00 +2°C° 0 mm 1 m/S 736 mmHg 82%
    06:00 +3°C° 0 mm 1 m/S 736 mmHg 82%
    07:00 +3°C° 0 mm 1 m/S 736 mmHg 82%
    08:00 +3°C° 0 mm 1 m/S 736 mmHg 82%
    09:00 +4°C° 0 mm 1 m/S 736 mmHg 78%
    10:00 +4°C° 0 mm 2 m/S 737 mmHg 73%
    11:00 +5°C° 0 mm 2 m/S 737 mmHg 69%
    12:00 +5°C° 0 mm 2 m/S 737 mmHg 67%
    13:00 +4°C° 0 mm 3 m/S 737 mmHg 66%
    14:00 +5°C° 0 mm 3 m/S 737 mmHg 64%
    15:00 +4°C° 0 mm 3 m/S 737 mmHg 65%
    16:00 +4°C° 0 mm 4 m/S 738 mmHg 66%
    17:00 +3°C° 0 mm 4 m/S 738 mmHg 68%
    18:00 +2°C° 0 mm 3 m/S 738 mmHg 71%
    19:00 +2°C° 0 mm 3 m/S 739 mmHg 75%
    20:00 +2°C° 0 mm 2 m/S 739 mmHg 79%
    21:00 +1°C° 0 mm 2 m/S 740 mmHg 80%
    22:00 +1°C° 0 mm 2 m/S 740 mmHg 82%
    23:00 +1°C° 0 mm 2 m/S 740 mmHg 83%

    28 Februar, Freitag

    Zeit Temperatur Niederschläge Wind Luftdruck Luftfeuchtigkeit
    00:00 -1°C° 0 mm 2 m/S 740 mmHg 85%
    01:00 -1°C° 0 mm 2 m/S 740 mmHg 87%
    02:00 -1°C° 0 mm 2 m/S 740 mmHg 90%
    03:00 -2°C° 0 mm 2 m/S 740 mmHg 91%
    04:00 -2°C° 0 mm 2 m/S 740 mmHg 91%
    05:00 -2°C° 0 mm 2 m/S 740 mmHg 92%
    06:00 -2°C° 0 mm 2 m/S 740 mmHg 91%
    07:00 -2°C° 0 mm 2 m/S 740 mmHg 89%
    08:00 0°C° 0 mm 1 m/S 740 mmHg 88%
    09:00 +1°C° 0 mm 2 m/S 740 mmHg 80%
    10:00 +1°C° 0 mm 3 m/S 740 mmHg 73%
    11:00 +2°C° 0 mm 3 m/S 739 mmHg 65%
    12:00 +3°C° 0 mm 4 m/S 739 mmHg 60%
    13:00 +2°C° 0 mm 5 m/S 738 mmHg 55%
    14:00 +3°C° 0 mm 6 m/S 737 mmHg 50%
    15:00 +3°C° 0 mm 5 m/S 737 mmHg 53%
    16:00 +3°C° 0 mm 5 m/S 737 mmHg 57%
    17:00 +2°C° 0 mm 5 m/S 736 mmHg 60%
    18:00 +2°C° 0.2 mm 5 m/S 736 mmHg 68%
    19:00 +2°C° 0.2 mm 5 m/S 736 mmHg 75%
    20:00 +1°C° 0.2 mm 5 m/S 736 mmHg 83%
    21:00 +1°C° 0 mm 5 m/S 735 mmHg 83%
    22:00 +1°C° 0 mm 5 m/S 735 mmHg 83%
    23:00 0°C° 0 mm 5 m/S 735 mmHg 82%
    Mehr zeigen